This is the latest recevied weather packets stored in our database for station/object K1WJY. If no packets are shown the sender has not sent any weather packets the latest 10 day(s).
| Time | Temp. | Humidity | Pressure | Rain* | Wind** | Luminosity | Snow |
|---|---|---|---|---|---|---|---|
| 1787929344 | 23.89° C | 93% | 1018.7 hPa | 0 mm | - | 118 W/m² | - |
| 1787929041 | 23.89° C | 94% | 1019 hPa | 0 mm | - | 161 W/m² | - |
| 1787928737 | 23.89° C | 94% | 1018.6 hPa | 0 mm | - | 293 W/m² | - |
| 1787928436 | 23.33° C | 96% | 1018.8 hPa | 0 mm | - | 307 W/m² | - |
| 1787928135 | 23.33° C | 96% | 1018.8 hPa | 0 mm | - | 154 W/m² | - |
| 1787927835 | 23.33° C | 96% | 1018.7 hPa | 0 mm | - | 118 W/m² | - |
| 1787927529 | 23.33° C | 95% | 1018.9 hPa | 0 mm | - | 144 W/m² | - |
| 1787927224 | 23.33° C | 96% | 1018.7 hPa | 0 mm | - | 255 W/m² | - |
| 1787926919 | 23.33° C | 96% | 1018.8 hPa | 0 mm | - | 161 W/m² | - |
| 1787926614 | 23.33° C | 95% | 1018.9 hPa | 0 mm | - | 120 W/m² | - |
| 1787926312 | 23.33° C | 94% | 1018.7 hPa | 0 mm | - | 115 W/m² | - |
| 1787926008 | 23.33° C | 94% | 1018.8 hPa | 0 mm | - | 262 W/m² | - |
| 1787925708 | 23.33° C | 94% | 1018.7 hPa | 0 mm | - | 228 W/m² | - |
| 1787925408 | 22.78° C | 95% | 1018.7 hPa | 0 mm | - | 246 W/m² | - |
| 1787925107 | 22.78° C | 95% | 1018.8 hPa | 0 mm | - | 255 W/m² | - |
| 1787924805 | 22.78° C | 94% | 1018.6 hPa | 0 mm | - | 191 W/m² | - |
| 1787924501 | 22.78° C | 95% | 1018.8 hPa | 0 mm | - | 173 W/m² | - |
| 1787924196 | 22.78° C | 96% | 1018.7 hPa | 0 mm | - | 138 W/m² | - |
| 1787923892 | 22.78° C | 96% | 1018.8 hPa | 0 mm | - | 144 W/m² | - |
| 1787923591 | 22.22° C | 96% | 1018.9 hPa | 0 mm | - | 116 W/m² | - |
| 1787923287 | 22.22° C | 96% | 1018.9 hPa | 0 mm | - | 136 W/m² | - |
| 1787922987 | 22.22° C | 96% | 1018.8 hPa | 0 mm | - | 141 W/m² | - |
| 1787922681 | 22.22° C | 96% | 1018.6 hPa | 0 mm | - | 137 W/m² | - |
| 1787922381 | 22.22° C | 97% | 1018.6 hPa | 0 mm | - | 136 W/m² | - |
| 1787922080 | 21.67° C | 98% | 1018.9 hPa | 0 mm | - | 115 W/m² | - |
* Rain latest hour (hover to see other rain measurements)
** Current wind speed in m/s (hover to see current wind gust speed)